Time,TemperatureF,DewpointF,PressureIn,WindDirection,WindDirectionDegrees,WindSpeedMPH,WindSpeedGustMPH,Humidity,HourlyPrecipIn,Conditions,Clouds,dailyrainin,SoftwareType,DateUTC
2013-02-16 00:02:00,41.0,27.0,30.35,NNE,19,0.0,0.0,58,0.00,,,0.01,,2013-02-16 06:02:00,
2013-02-16 00:11:00,41.0,27.0,30.35,NNE,19,0.0,0.0,58,0.00,,,0.01,,2013-02-16 06:11:00,
2013-02-16 00:21:00,40.0,26.0,30.35,NNE,20,0.0,0.0,56,0.00,,,0.01,,2013-02-16 06:21:00,
2013-02-16 00:32:00,40.0,26.0,30.35,NNE,20,0.0,0.0,57,0.00,,,0.01,,2013-02-16 06:32:00,
2013-02-16 00:42:00,40.0,26.0,30.35,NNE,20,0.0,0.0,57,0.00,,,0.01,,2013-02-16 06:42:00,
2013-02-16 00:51:00,40.0,26.0,30.35,NNE,20,0.0,0.0,57,0.00,,,0.01,,2013-02-16 06:51:00,
2013-02-16 01:02:00,39.0,26.0,30.35,NNE,20,0.0,0.0,60,0.00,,,0.01,,2013-02-16 07:02:00,
2013-02-16 01:11:00,39.0,26.0,30.35,NNE,20,0.0,0.0,60,0.00,,,0.01,,2013-02-16 07:11:00,
2013-02-16 01:21:00,38.0,27.0,30.36,NNE,19,0.0,0.0,64,0.00,,,0.01,,2013-02-16 07:21:00,
2013-02-16 01:31:00,38.0,28.0,30.36,NNE,19,0.0,4.0,66,0.00,,,0.01,,2013-02-16 07:31:00,
2013-02-16 01:42:00,38.0,28.0,30.36,NNE,19,0.0,4.0,66,0.00,,,0.01,,2013-02-16 07:42:00,
2013-02-16 01:52:00,37.0,27.0,30.36,NNE,19,0.0,0.0,68,0.00,,,0.01,,2013-02-16 07:52:00,
2013-02-16 02:01:00,37.0,28.0,30.35,NNE,19,0.0,3.0,69,0.00,,,0.01,,2013-02-16 08:01:00,
2013-02-16 02:11:00,37.0,28.0,30.35,NNE,19,0.0,3.0,69,0.00,,,0.01,,2013-02-16 08:11:00,
2013-02-16 02:21:00,37.0,28.0,30.36,NNE,19,0.0,0.0,70,0.00,,,0.01,,2013-02-16 08:21:00,
2013-02-16 02:31:00,37.0,28.0,30.36,NNE,19,0.0,0.0,70,0.00,,,0.01,,2013-02-16 08:31:00,
2013-02-16 02:41:00,37.0,28.0,30.36,NNE,19,0.0,0.0,70,0.00,,,0.01,,2013-02-16 08:41:00,
2013-02-16 02:52:00,37.0,28.0,30.36,NNE,19,0.0,5.0,69,0.00,,,0.01,,2013-02-16 08:52:00,
2013-02-16 03:01:00,36.0,27.0,30.35,NNE,20,0.0,4.0,69,0.00,,,0.01,,2013-02-16 09:01:00,
2013-02-16 03:11:00,36.0,27.0,30.35,NNE,20,0.0,4.0,69,0.00,,,0.01,,2013-02-16 09:11:00,
2013-02-16 03:21:00,36.0,27.0,30.36,NNE,19,0.0,0.0,70,0.00,,,0.01,,2013-02-16 09:21:00,
2013-02-16 03:31:00,35.0,27.0,30.35,NNE,19,0.0,0.0,71,0.00,,,0.01,,2013-02-16 09:31:00,
2013-02-16 03:42:00,35.0,27.0,30.35,NNE,19,0.0,0.0,71,0.00,,,0.01,,2013-02-16 09:42:00,
2013-02-16 03:51:00,34.0,26.0,30.36,NNE,19,0.0,0.0,72,0.00,,,0.01,,2013-02-16 09:51:00,
2013-02-16 04:01:00,34.0,26.0,30.37,NNE,19,0.0,0.0,73,0.00,,,0.01,,2013-02-16 10:01:00,
2013-02-16 04:11:00,34.0,26.0,30.37,NNE,19,0.0,0.0,73,0.00,,,0.01,,2013-02-16 10:11:00,
2013-02-16 04:21:00,33.0,26.0,30.37,NNE,20,0.0,0.0,74,0.00,,,0.01,,2013-02-16 10:21:00,
2013-02-16 04:31:00,33.0,26.0,30.37,NNE,20,0.0,0.0,74,0.00,,,0.01,,2013-02-16 10:31:00,
2013-02-16 04:41:00,33.0,26.0,30.37,NNE,20,0.0,0.0,74,0.00,,,0.01,,2013-02-16 10:41:00,
2013-02-16 04:51:00,32.0,25.0,30.37,NNE,20,0.0,0.0,76,0.00,,,0.01,,2013-02-16 10:51:00,
2013-02-16 05:02:00,32.0,26.0,30.37,NNE,20,0.0,0.0,77,0.00,,,0.01,,2013-02-16 11:02:00,
2013-02-16 05:11:00,32.0,26.0,30.37,NNE,20,0.0,0.0,77,0.00,,,0.01,,2013-02-16 11:11:00,
2013-02-16 05:22:00,32.0,26.0,30.37,NNE,19,0.0,0.0,79,0.00,,,0.01,,2013-02-16 11:22:00,
2013-02-16 05:32:00,31.0,26.0,30.38,NNE,20,0.0,0.0,80,0.00,,,0.01,,2013-02-16 11:32:00,
2013-02-16 05:42:00,31.0,26.0,30.38,NNE,20,0.0,0.0,80,0.00,,,0.01,,2013-02-16 11:42:00,
2013-02-16 05:52:00,31.0,26.0,30.38,NNE,20,0.0,0.0,80,0.00,,,0.01,,2013-02-16 11:52:00,
2013-02-16 06:01:00,31.0,26.0,30.38,NNE,19,0.0,0.0,80,0.00,,,0.01,,2013-02-16 12:01:00,
2013-02-16 06:12:00,31.0,26.0,30.38,NNE,19,0.0,0.0,80,0.00,,,0.01,,2013-02-16 12:12:00,
2013-02-16 06:22:00,31.0,26.0,30.39,NNE,20,0.0,0.0,81,0.00,,,0.01,,2013-02-16 12:22:00,
2013-02-16 06:32:00,31.0,26.0,30.39,NNE,19,0.0,0.0,81,0.00,,,0.01,,2013-02-16 12:32:00,
2013-02-16 06:42:00,31.0,26.0,30.39,NNE,19,0.0,0.0,81,0.00,,,0.01,,2013-02-16 12:42:00,
2013-02-16 06:52:00,31.0,26.0,30.39,NNE,19,0.0,0.0,81,0.00,,,0.01,,2013-02-16 12:52:00,
2013-02-16 07:02:00,31.0,26.0,30.40,NNE,20,0.0,0.0,81,0.00,,,0.01,,2013-02-16 13:02:00,
2013-02-16 07:11:00,32.0,27.0,30.39,NNE,19,0.0,0.0,81,0.00,,,0.01,,2013-02-16 13:11:00,
2013-02-16 07:21:00,32.0,27.0,30.39,NNE,19,0.0,0.0,81,0.00,,,0.01,,2013-02-16 13:21:00,
2013-02-16 07:31:00,31.0,26.0,30.40,NNE,20,0.0,3.0,80,0.00,,,0.01,,2013-02-16 13:31:00,
2013-02-16 07:41:00,31.0,26.0,30.40,NNE,20,0.0,3.0,80,0.00,,,0.01,,2013-02-16 13:41:00,
2013-02-16 07:51:00,32.0,27.0,30.40,NNE,20,0.0,0.0,80,0.00,,,0.01,,2013-02-16 13:51:00,
2013-02-16 08:01:00,32.0,27.0,30.40,NNE,19,0.0,0.0,80,0.00,,,0.01,,2013-02-16 14:01:00,
2013-02-16 08:11:00,32.0,27.0,30.40,NNE,19,0.0,0.0,80,0.00,,,0.01,,2013-02-16 14:11:00,
2013-02-16 08:21:00,32.0,27.0,30.40,NNE,19,0.0,0.0,80,0.00,,,0.01,,2013-02-16 14:21:00,
2013-02-16 08:32:00,33.0,27.0,30.41,North,360,2.0,7.0,77,0.00,,,0.01,,2013-02-16 14:32:00,
2013-02-16 08:41:00,33.0,27.0,30.41,North,360,2.0,7.0,77,0.00,,,0.01,,2013-02-16 14:41:00,
2013-02-16 08:52:00,34.0,27.0,30.42,North,355,0.0,5.0,74,0.00,,,0.01,,2013-02-16 14:52:00,
2013-02-16 09:01:00,36.0,27.0,30.42,North,350,2.0,6.0,70,0.00,,,0.01,,2013-02-16 15:01:00,
2013-02-16 09:11:00,36.0,27.0,30.42,North,350,2.0,6.0,70,0.00,,,0.01,,2013-02-16 15:11:00,
2013-02-16 09:21:00,37.0,27.0,30.42,North,350,0.0,6.0,67,0.00,,,0.01,,2013-02-16 15:21:00,
2013-02-16 09:31:00,39.0,28.0,30.42,North,350,0.0,6.0,64,0.00,,,0.01,,2013-02-16 15:31:00,
2013-02-16 09:41:00,39.0,28.0,30.42,North,350,0.0,6.0,64,0.00,,,0.01,,2013-02-16 15:41:00,
2013-02-16 09:52:00,41.0,28.0,30.42,North,350,0.0,6.0,60,0.00,,,0.01,,2013-02-16 15:52:00,
2013-02-16 10:01:00,43.0,29.0,30.41,NNW,348,2.0,7.0,57,0.00,,,0.01,,2013-02-16 16:01:00,
2013-02-16 10:11:00,43.0,29.0,30.41,NNW,348,2.0,7.0,57,0.00,,,0.01,,2013-02-16 16:11:00,
2013-02-16 10:21:00,44.0,28.0,30.41,NW,326,4.0,10.0,54,0.00,,,0.01,,2013-02-16 16:21:00,
2013-02-16 10:32:00,47.0,29.0,30.41,NW,325,3.0,8.0,50,0.00,,,0.01,,2013-02-16 16:32:00,
2013-02-16 10:41:00,47.0,29.0,30.41,NW,325,3.0,8.0,50,0.00,,,0.01,,2013-02-16 16:41:00,
2013-02-16 10:52:00,49.0,30.0,30.40,NW,325,0.0,6.0,48,0.00,,,0.01,,2013-02-16 16:52:00,
2013-02-16 11:01:00,51.0,30.0,30.40,NW,325,0.0,8.0,45,0.00,,,0.01,,2013-02-16 17:01:00,
2013-02-16 11:11:00,51.0,30.0,30.40,NW,325,0.0,8.0,45,0.00,,,0.01,,2013-02-16 17:11:00,
2013-02-16 11:21:00,52.0,30.0,30.40,NNW,333,0.0,9.0,42,0.00,,,0.01,,2013-02-16 17:21:00,
2013-02-16 11:32:00,55.0,30.0,30.39,NW,323,2.0,8.0,38,0.00,,,0.01,,2013-02-16 17:32:00,
2013-02-16 11:42:00,55.0,30.0,30.39,NW,323,2.0,8.0,38,0.00,,,0.01,,2013-02-16 17:42:00,
2013-02-16 11:52:00,56.0,29.0,30.38,NW,316,3.0,9.0,35,0.00,,,0.01,,2013-02-16 17:52:00,
2013-02-16 12:02:00,56.0,29.0,30.38,NW,304,3.0,10.0,35,0.00,,,0.01,,2013-02-16 18:02:00,
2013-02-16 12:11:00,56.0,29.0,30.38,NW,304,3.0,10.0,35,0.00,,,0.01,,2013-02-16 18:11:00,
2013-02-16 12:21:00,56.0,29.0,30.38,NW,304,3.0,10.0,35,0.00,,,0.01,,2013-02-16 18:21:00,
2013-02-16 12:33:00,58.0,28.0,30.36,NNW,334,3.0,10.0,32,0.00,,,0.01,,2013-02-16 18:33:00,
2013-02-16 12:42:00,58.0,28.0,30.36,NNW,334,3.0,10.0,32,0.00,,,0.01,,2013-02-16 18:42:00,
2013-02-16 12:52:00,60.0,30.0,30.35,NNW,337,1.0,7.0,32,0.00,,,0.01,,2013-02-16 18:52:00,
2013-02-16 13:02:00,60.0,31.0,30.34,NNW,330,1.0,9.0,33,0.00,,,0.01,,2013-02-16 19:02:00,
2013-02-16 13:11:00,60.0,31.0,30.34,NNW,330,1.0,9.0,33,0.00,,,0.01,,2013-02-16 19:11:00,
2013-02-16 13:21:00,61.0,31.0,30.33,NW,318,5.0,10.0,32,0.00,,,0.01,,2013-02-16 19:21:00,
2013-02-16 13:31:00,60.0,30.0,30.31,NNW,340,7.0,14.0,32,0.00,,,0.01,,2013-02-16 19:31:00,
2013-02-16 13:42:00,60.0,30.0,30.31,NNW,340,7.0,14.0,32,0.00,,,0.01,,2013-02-16 19:42:00,
2013-02-16 13:52:00,61.0,29.0,30.29,NNW,335,4.0,8.0,30,0.00,,,0.01,,2013-02-16 19:52:00,
2013-02-16 14:01:00,60.0,30.0,30.28,NNW,338,3.0,9.0,32,0.00,,,0.01,,2013-02-16 20:01:00,
2013-02-16 14:11:00,62.0,30.0,30.27,NNW,335,3.0,10.0,30,0.00,,,0.01,,2013-02-16 20:11:00,
2013-02-16 14:21:00,62.0,30.0,30.27,NNW,335,3.0,10.0,30,0.00,,,0.01,,2013-02-16 20:21:00,
2013-02-16 14:32:00,64.0,32.0,30.25,NW,323,1.0,8.0,30,0.00,,,0.01,,2013-02-16 20:32:00,
2013-02-16 14:42:00,64.0,32.0,30.25,NW,323,1.0,8.0,30,0.00,,,0.01,,2013-02-16 20:42:00,
2013-02-16 14:52:00,64.0,31.0,30.25,NW,313,4.0,10.0,29,0.00,,,0.01,,2013-02-16 20:52:00,
2013-02-16 15:02:00,63.0,29.0,30.24,NW,308,0.0,5.0,28,0.00,,,0.01,,2013-02-16 21:02:00,
2013-02-16 15:11:00,63.0,29.0,30.24,NW,308,0.0,5.0,28,0.00,,,0.01,,2013-02-16 21:11:00,
2013-02-16 15:21:00,63.0,30.0,30.23,NW,310,3.0,7.0,29,0.00,,,0.01,,2013-02-16 21:21:00,
2013-02-16 15:31:00,67.0,33.0,30.23,NW,311,1.0,6.0,28,0.00,,,0.01,,2013-02-16 21:31:00,
2013-02-16 15:41:00,67.0,33.0,30.23,NW,311,1.0,6.0,28,0.00,,,0.01,,2013-02-16 21:41:00,
2013-02-16 15:52:00,66.0,31.0,30.22,NW,308,3.0,9.0,27,0.00,,,0.01,,2013-02-16 21:52:00,
2013-02-16 16:01:00,66.0,31.0,30.21,NW,307,2.0,5.0,27,0.00,,,0.01,,2013-02-16 22:01:00,
2013-02-16 16:11:00,66.0,31.0,30.21,NW,307,2.0,5.0,27,0.00,,,0.01,,2013-02-16 22:11:00,
2013-02-16 16:21:00,65.0,30.0,30.20,NW,310,0.0,7.0,27,0.00,,,0.01,,2013-02-16 22:21:00,
2013-02-16 16:32:00,66.0,30.0,30.20,NW,310,2.0,6.0,26,0.00,,,0.01,,2013-02-16 22:32:00,
2013-02-16 16:42:00,66.0,30.0,30.20,NW,310,2.0,6.0,26,0.00,,,0.01,,2013-02-16 22:42:00,
2013-02-16 16:52:00,66.0,31.0,30.19,NW,315,0.0,8.0,27,0.00,,,0.01,,2013-02-16 22:52:00,
2013-02-16 17:02:00,66.0,31.0,30.19,WNW,303,0.0,8.0,27,0.00,,,0.01,,2013-02-16 23:02:00,
2013-02-16 17:11:00,66.0,31.0,30.18,NW,304,0.0,0.0,27,0.00,,,0.01,,2013-02-16 23:11:00,
2013-02-16 17:21:00,66.0,31.0,30.18,NW,304,0.0,0.0,27,0.00,,,0.01,,2013-02-16 23:21:00,
2013-02-16 17:31:00,65.0,29.0,30.17,WNW,303,0.0,4.0,26,0.00,,,0.01,,2013-02-16 23:31:00,
2013-02-16 17:42:00,65.0,29.0,30.17,WNW,303,0.0,4.0,26,0.00,,,0.01,,2013-02-16 23:42:00,
2013-02-16 17:52:00,65.0,30.0,30.17,NW,304,0.0,0.0,27,0.00,,,0.01,,2013-02-16 23:52:00,
2013-02-16 18:02:00,65.0,30.0,30.17,NW,304,0.0,0.0,27,0.00,,,0.01,,2013-02-17 00:02:00,
2013-02-16 18:12:00,65.0,30.0,30.17,NW,304,0.0,0.0,27,0.00,,,0.01,,2013-02-17 00:12:00,
2013-02-16 18:21:00,64.0,32.0,30.17,NW,304,0.0,0.0,30,0.00,,,0.01,,2013-02-17 00:21:00,
2013-02-16 18:31:00,63.0,33.0,30.17,WNW,303,0.0,0.0,32,0.00,,,0.01,,2013-02-17 00:31:00,
2013-02-16 18:41:00,63.0,33.0,30.17,WNW,303,0.0,0.0,32,0.00,,,0.01,,2013-02-17 00:41:00,
2013-02-16 18:52:00,61.0,32.0,30.17,WNW,303,0.0,0.0,34,0.00,,,0.01,,2013-02-17 00:52:00,
2013-02-16 19:01:00,60.0,32.0,30.17,WNW,303,0.0,0.0,35,0.00,,,0.01,,2013-02-17 01:01:00,
2013-02-16 19:11:00,60.0,32.0,30.17,WNW,303,0.0,0.0,35,0.00,,,0.01,,2013-02-17 01:11:00,
2013-02-16 19:21:00,58.0,33.0,30.17,NW,304,0.0,0.0,38,0.00,,,0.01,,2013-02-17 01:21:00,
2013-02-16 19:31:00,57.0,35.0,30.17,NW,304,0.0,0.0,44,0.00,,,0.01,,2013-02-17 01:31:00,
2013-02-16 19:41:00,57.0,35.0,30.17,NW,304,0.0,0.0,44,0.00,,,0.01,,2013-02-17 01:41:00,
2013-02-16 19:52:00,55.0,33.0,30.17,NW,304,0.0,0.0,44,0.00,,,0.01,,2013-02-17 01:52:00,
2013-02-16 20:01:00,54.0,36.0,30.17,NW,304,0.0,0.0,50,0.00,,,0.01,,2013-02-17 02:01:00,
2013-02-16 20:11:00,54.0,36.0,30.17,NW,304,0.0,0.0,50,0.00,,,0.01,,2013-02-17 02:11:00,
2013-02-16 20:21:00,53.0,33.0,30.17,NW,304,0.0,0.0,47,0.00,,,0.00,,2013-02-17 02:21:00,
2013-02-16 20:31:00,52.0,34.0,30.17,WNW,303,0.0,0.0,50,0.00,,,0.00,,2013-02-17 02:31:00,
2013-02-16 20:41:00,52.0,34.0,30.17,WNW,303,0.0,0.0,50,0.00,,,0.00,,2013-02-17 02:41:00,
2013-02-16 20:52:00,51.0,34.0,30.17,WNW,303,0.0,0.0,52,0.00,,,0.00,,2013-02-17 02:52:00,
2013-02-16 21:01:00,51.0,35.0,30.17,NW,304,0.0,0.0,54,0.00,,,0.00,,2013-02-17 03:01:00,
2013-02-16 21:11:00,51.0,35.0,30.17,NW,304,0.0,0.0,54,0.00,,,0.00,,2013-02-17 03:11:00,
2013-02-16 21:21:00,50.0,34.0,30.17,NW,304,0.0,0.0,53,0.00,,,0.00,,2013-02-17 03:21:00,
2013-02-16 21:31:00,50.0,33.0,30.17,NW,304,0.0,0.0,52,0.00,,,0.00,,2013-02-17 03:31:00,
2013-02-16 21:42:00,50.0,33.0,30.17,NW,304,0.0,0.0,52,0.00,,,0.00,,2013-02-17 03:42:00,
2013-02-16 21:52:00,50.0,32.0,30.17,NW,304,0.0,0.0,50,0.00,,,0.00,,2013-02-17 03:52:00,
2013-02-16 22:01:00,49.0,32.0,30.17,NW,304,0.0,0.0,52,0.00,,,0.00,,2013-02-17 04:01:00,
2013-02-16 22:11:00,49.0,32.0,30.17,WNW,303,0.0,0.0,52,0.00,,,0.00,,2013-02-17 04:11:00,
2013-02-16 22:21:00,49.0,32.0,30.17,WNW,303,0.0,0.0,52,0.00,,,0.00,,2013-02-17 04:21:00,
2013-02-16 22:31:00,49.0,32.0,30.17,WNW,303,0.0,0.0,52,0.00,,,0.00,,2013-02-17 04:31:00,
2013-02-16 22:41:00,49.0,32.0,30.17,WNW,303,0.0,0.0,52,0.00,,,0.00,,2013-02-17 04:41:00,
2013-02-16 22:52:00,48.0,32.0,30.17,NW,304,0.0,0.0,54,0.00,,,0.00,,2013-02-17 04:52:00,
2013-02-16 23:01:00,49.0,32.0,30.17,WNW,303,0.0,0.0,51,0.00,,,0.00,,2013-02-17 05:01:00,
2013-02-16 23:12:00,48.0,31.0,30.17,NW,304,0.0,0.0,52,0.00,,,0.00,,2013-02-17 05:12:00,
2013-02-16 23:22:00,48.0,31.0,30.17,NW,304,0.0,0.0,52,0.00,,,0.00,,2013-02-17 05:22:00,
2013-02-16 23:32:00,48.0,31.0,30.17,NW,304,0.0,0.0,51,0.00,,,0.00,,2013-02-17 05:32:00,
2013-02-16 23:42:00,48.0,31.0,30.17,NW,304,0.0,0.0,51,0.00,,,0.00,,2013-02-17 05:42:00,
2013-02-16 23:52:00,49.0,31.0,30.16,NW,304,0.0,0.0,50,0.00,,,0.00,,2013-02-17 05:52:00,